Location: Auckland
(36.8670°S, 174.7670°E)
Time: 02:54:58
(UTC+13:00)

Terra - Pass Details

Date: 24 January 2019
Orbit: 701 x 703 km, 98.2° (Epoch: 19 February)

Event Time Altitude Azimuth Distance (km) Brightness Sun altitude
Rises 23:12:26 0° 152° (SSE) 3,127 5.5 -24.9°
Reaches altitude 10° 23:15:11 10° 137° (SE) 2,199 4.5 -25.2°
Enters shadow 23:16:44 17° 121° (ESE) 1,785 3.8 -25.4°
